RH
23 25 27 29 32 35 38 41 44 47 49 52 54 57 59 60 60 60 60 58 57 57 58 60 64 68 69 67 66 66 66 68 72 74 76 78 80 82 84 85 85 85 86 87 90 94 97 98 94 89 83 80 77 72 66 61 58 59 63 64 59 52 48 45 41 38 35 31 28 26 26 24 20 17
21 20 20 20 20 21 22 23 25 27 29 32 34 37 40 44 46 49 52 53 55 56 57 57 59 61 65 65 65 65 64 63 64 65 66 68 70 74 77 80 82 84 85 85 85 86 90 95 96 94 91 89 89 85 77 69 63 60 62 65 65 60 53 49 45 41 36 31 29 28 28 25 22 19
26 25 23 23 21 20 20 19 19 19 19 19 21 22 23 25 28 32 35 39 44 46 47 50 52 53 55 57 58 59 60 61 62 61 61 61 62 64 66 69 72 75 79 81 82 82 84 87 90 91 90 91 93 92 86 80 74 70 66 65 65 64 60 55 51 45 39 35 32 30 28 27 24 20
33 32 30 30 29 27 26 24 23 22 21 20 18 17 17 17 18 19 21 23 28 31 32 35 39 41 44 46 48 49 51 53 55 57 57 57 58 59 60 61 63 65 68 72 74 77 78 80 83 85 84 85 88 88 87 86 84 80 75 71 68 66 64 61 57 51 45 39 36 33 31 29 27 24
38 37 36 36 36 35 33 32 31 29 28 27 25 23 21 19 18 17 16 15 15 17 19 21 23 26 29 32 35 37 39 42 44 47 49 51 53 54 56 57 58 60 61 63 66 68 71 73 75 78 79 79 80 82 82 83 85 83 81 78 74 69 66 64 60 55 50 44 40 36 33 31 29 28
43 41 39 39 39 38 37 36 35 35 34 33 32 31 29 27 25 23 21 17 13 12 12 13 14 15 16 19 21 24 26 28 31 34 37 40 43 46 49 51 52 54 56 57 59 61 64 66 67 69 72 73 74 75 76 77 80 81 80 78 75 71 68 64 61 58 54 50 46 41 37 35 33 31
42 41 40 40 40 39 38 37 36 36 35 34 33 32 31 30 29 27 26 22 18 14 12 12 12 11 11 12 13 14 15 17 19 21 24 26 30 33 37 41 44 46 49 50 52 55 56 59 61 63 65 67 68 70 70 71 73 74 75 75 72 69 67 65 63 61 58 55 51 48 44 41 40 38
34 34 34 34 34 34 34 34 34 34 33 33 32 31 31 30 28 28 26 24 21 17 14 13 13 13 12 12 12 11 11 12 12 13 15 16 18 21 24 27 31 35 38 41 44 46 49 51 53 55 58 60 63 65 66 67 68 68 68 70 70 68 67 66 64 62 60 57 55 53 50 47 45 44
25 25 25 25 25 25 25 25 26 26 27 27 27 27 28 28 28 27 27 26 24 21 18 16 15 15 14 14 13 13 12 11 11 10 10 11 12 13 15 16 19 22 25 29 33 36 40 42 45 47 49 52 54 57 60 62 63 64 64 66 67 67 66 65 65 63 60 57 56 54 52 50 48 46
19 19 18 18 18 17 18 18 18 18 18 19 19 20 20 21 22 22 23 23 23 22 21 19 19 18 17 17 16 16 15 14 13 11 11 11 10 10 11 12 13 14 15 17 20 24 27 31 35 38 40 43 45 48 51 54 56 59 60 62 64 65 65 64 63 62 59 57 55 54 52 51 50 48
18 18 17 17 16 16 15 14 14 14 14 13 14 14 14 14 15 15 15 16 16 17 17 17 18 18 18 18 18 17 17 16 15 13 12 12 12 11 10 10 10 11 12 12 13 14 16 19 22 26 29 33 36 39 41 44 47 50 53 55 58 60 62 62 62 61 59 57 55 53 52 51 50 50
19 19 19 18 17 16 16 15 15 14 13 13 12 12 12 11 11 11 11 11 11 11 11 12 12 13 13 14 15 15 16 16 15 15 15 14 13 12 11 10 10 10 10 11 11 11 12 12 13 15 18 21 25 28 32 35 37 40 43 46 49 52 55 57 59 59 58 57 56 54 52 51 50 49
24 24 24 25 25 24 23 22 21 19 18 16 15 16 16 15 13 12 11 10 10 10 10 10 9 9 10 9 10 10 11 11 12 13 13 13 13 13 13 12 11 10 10 10 10 11 11 11 11 11 12 13 15 18 21 24 28 31 34 36 39 42 45 48 51 54 55 55 55 55 54 52 50 48
44 48 50 52 52 50 48 46 44 41 39 37 35 33 31 29 24 19 15 13 12 11 10 9 9 9 8 9 9 9 9 9 9 10 10 10 10 11 12 13 12 11 11 11 11 11 11 11 11 11 11 11 11 12 13 15 18 21 24 27 30 33 35 37 41 44 47 50 51 52 53 52 51 49
66 71 73 74 74 73 72 70 69 68 66 64 60 55 49 42 35 31 29 28 28 27 23 20 17 14 10 9 10 9 9 10 9 9 9 8 8 9 8 9 10 10 11 11 11 11 11 11 11 11 11 11 10 10 10 10 12 13 15 18 21 24 26 28 31 34 37 41 44 46 48 49 49 48
74 76 77 77 77 77 78 78 79 79 77 74 69 64 58 53 49 48 47 47 49 50 48 44 40 35 30 28 27 26 24 22 16 11 10 8 7 8 8 7 7 7 8 9 9 9 10 10 11 10 10 11 10 10 10 10 10 10 11 12 14 16 18 20 23 26 29 32 35 38 41 44 45 46
76 74 72 71 73 78 81 83 83 82 78 75 72 68 66 65 64 64 61 59 58 58 58 57 56 57 55 51 51 54 55 50 39 31 27 22 15 10 8 7 7 7 8 8 7 7 7 8 9 10 10 10 10 10 11 11 10 10 10 11 11 12 13 14 16 19 21 24 27 30 33 36 39 41
78 76 74 73 77 82 84 84 83 80 78 77 76 76 75 73 71 69 67 65 63 60 59 58 59 66 68 63 62 69 74 72 64 59 58 52 44 34 22 13 9 8 9 10 8 7 7 6 7 8 8 9 10 10 10 11 11 11 11 11 12 12 11 11 13 14 16 18 20 23 26 29 32 35
83 84 83 80 80 83 86 87 83 79 78 78 78 79 79 78 77 74 72 71 70 66 64 61 60 65 72 73 73 78 81 78 72 71 71 70 68 61 47 33 23 18 20 20 12 6 7 8 7 7 7 7 8 9 9 10 10 10 11 11 13 13 13 12 12 13 14 15 16 18 20 22 25 28
90 90 87 82 80 82 88 90 85 81 79 77 77 79 81 82 81 78 77 77 75 74 73 71 68 68 71 75 78 83 87 86 80 76 72 68 69 67 60 53 47 43 45 44 29 11 6 8 8 7 7 7 7 7 7 8 9 10 10 11 12 13 14 14 14 14 14 14 15 15 16 17 19 21
95 92 87 82 81 83 89 91 89 87 81 75 73 73 74 77 78 79 84 85 81 78 76 73 71 68 67 67 67 71 76 78 80 80 73 68 69 66 59 57 59 60 63 66 56 34 20 21 21 14 9 8 7 6 7 7 7 8 9 10 11 12 14 15 16 16 16 15 15 15 14 14 15 16
99 94 87 81 79 81 89 94 94 90 84 76 73 70 67 68 70 75 82 81 75 70 65 60 57 53 50 49 48 48 50 51 56 60 60 63 68 67 62 60 63 64 65 72 74 59 42 45 51 41 28 17 9 7 7 6 7 7 7 9 10 11 12 14 16 16 17 17 17 17 15 14 13 14
102 97 91 86 82 83 91 96 93 90 87 80 75 72 68 66 68 69 68 63 56 51 44 38 35 31 29 29 28 28 28 28 29 30 32 37 42 46 50 54 56 58 60 67 73 64 51 55 63 63 54 38 25 18 13 7 7 7 7 7 8 9 10 12 13 15 16 18 19 18 17 15 13 13
100 97 93 92 90 88 91 92 89 88 85 78 72 69 66 63 60 54 47 39 35 31 27 25 23 20 19 19 18 19 19 18 19 19 18 19 20 22 25 28 31 35 37 41 47 45 42 45 50 58 63 55 47 44 31 17 10 8 7 8 8 8 10 10 11 13 14 17 19 19 18 16 14 13
96 96 96 98 95 91 88 87 85 83 80 76 73 70 63 54 43 33 28 25 24 24 25 26 26 26 26 24 21 21 19 18 18 19 18 18 16 15 15 14 16 17 17 21 25 23 24 26 28 39 51 54 60 65 55 37 22 12 8 9 9 8 10 9 10 11 12 14 16 18 18 17 16 14
92 95 98 99 94 89 86 86 85 84 83 81 75 65 52 39 29 24 24 24 26 30 33 35 40 45 48 46 42 37 32 27 25 23 24 23 19 16 15 14 13 13 13 18 19 14 13 14 14 20 31 43 61 74 69 56 39 21 10 9 9 10 10 9 9 10 10 12 14 15 17 18 18 17
89 92 94 93 90 87 88 89 87 84 82 74 60 44 32 27 26 28 30 32 36 43 52 59 65 71 74 74 72 70 65 58 50 42 37 36 33 27 20 17 16 15 17 21 20 14 11 11 10 12 20 35 58 74 74 64 47 27 13 9 9 10 10 9 9 9 9 10 12 14 16 17 18 18
82 87 89 89 87 86 86 85 81 77 72 58 43 36 36 38 39 43 50 57 63 69 76 82 85 89 92 92 93 94 91 87 82 75 71 72 70 58 44 35 26 20 25 31 25 15 12 12 11 14 22 38 60 74 76 69 51 28 13 9 8 9 9 10 9 9 9 9 10 12 14 16 17 18
76 83 85 84 83 82 81 79 76 75 67 52 46 52 56 55 57 66 77 85 87 87 87 87 86 89 93 93 93 94 92 92 95 97 98 100 96 85 72 60 46 41 45 42 28 16 13 12 16 27 40 53 67 76 76 69 51 29 13 8 8 8 10 11 11 10 10 9 10 11 13 14 16 17
81 82 80 80 82 82 81 79 81 81 71 58 59 67 68 68 77 89 95 95 92 91 90 88 88 91 92 91 90 91 92 95 100 103 104 103 101 97 89 78 71 69 61 45 28 17 11 14 33 55 68 75 81 83 77 61 42 24 13 9 9 10 11 12 12 11 11 11 10 11 12 13 14 15
86 81 79 82 86 86 83 84 88 88 78 70 73 76 76 83 94 100 98 94 91 90 92 92 91 94 96 97 98 100 103 105 105 106 106 103 103 103 99 92 89 81 62 41 25 13 13 36 70 90 94 94 92 83 65 44 27 18 14 13 13 14 15 15 14 12 12 12 11 11 11 12 13 14
86 82 83 89 92 90 87 89 94 93 86 82 84 85 88 97 103 101 97 93 87 86 90 91 89 90 94 98 100 103 105 104 103 103 103 101 102 105 105 99 90 74 50 28 16 20 43 78 101 108 109 104 87 64 42 27 20 20 21 20 20 20 21 19 16 13 13 13 12 12 12 12 13 14
92 90 90 94 96 93 90 92 96 95 92 91 91 94 100 105 104 100 97 94 91 91 93 94 94 94 95 99 100 101 101 102 101 101 100 100 102 103 100 90 74 54 36 28 38 63 89 102 104 109 109 90 60 37 25 20 21 25 28 27 25 26 27 25 21 20 18 16 15 16 16 16 16 15
98 101 100 99 97 95 95 96 96 95 97 96 94 96 103 106 105 103 99 95 97 99 97 98 100 99 99 101 101 100 100 101 101 99 100 101 102 101 98 92 80 67 61 69 85 100 104 101 104 106 91 59 33 23 20 20 24 28 29 28 30 33 36 36 35 34 31 28 29 32 33 31 30 28
101 105 106 103 98 96 97 99 97 96 99 100 97 97 101 103 105 107 103 98 98 101 99 99 101 100 100 101 102 102 102 101 100 100 100 101 101 100 99 100 98 93 94 99 102 101 100 104 104 88 60 35 24 21 20 22 26 28 29 32 38 44 47 48 49 49 48 49 51 53 53 52 50 47
102 105 106 102 97 96 99 101 99 98 100 102 102 100 100 100 103 107 107 102 99 100 101 101 101 100 100 100 101 103 105 104 102 102 100 100 101 100 100 101 101 100 102 102 100 100 103 100 85 59 38 27 21 19 23 27 29 31 36 42 47 51 53 55 57 59 61 64 65 64 63 63 61 58
102 102 102 100 96 97 101 102 101 100 101 103 104 103 102 100 100 105 107 103 100 100 100 100 101 101 101 100 100 102 106 105 103 101 101 101 101 100 100 101 100 100 102 101 101 102 98 83 61 41 28 21 20 23 30 33 33 37 43 48 50 52 54 57 60 62 64 68 68 66 65 62 59 57
102 102 102 100 98 101 103 103 102 101 101 103 105 105 103 101 99 100 103 103 101 100 100 100 101 100 100 101 100 101 104 104 102 100 100 100 100 100 101 100 100 101 101 100 103 101 85 62 44 31 23 23 28 33 36 38 40 45 49 51 51 51 54 57 58 60 63 65 64 61 60 58 57 57
102 103 104 103 101 103 105 105 105 103 99 100 105 107 105 103 98 95 97 101 101 100 100 100 101 101 101 101 101 101 102 102 100 99 100 100 100 101 100 99 101 102 99 100 104 99 78 55 41 33 31 33 37 39 40 42 45 48 50 51 50 49 51 54 55 54 56 57 57 56 56 55 54 52
101 101 103 103 102 103 104 105 106 104 97 96 103 107 107 106 101 95 96 100 101 100 100 100 100 101 101 101 101 101 101 101 100 100 101 100 100 100 101 101 101 100 99 102 104 95 77 61 49 40 38 39 39 39 41 44 45 48 50 51 51 48 47 48 48 48 48 48 48 48 48 49 48 46
101 100 100 102 101 101 104 105 106 103 97 95 102 107 108 108 106 101 99 100 100 100 101 100 100 101 101 101 101 101 100 101 101 100 100 100 101 101 101 100 100 100 103 104 97 81 65 53 42 36 36 37 37 38 43 47 48 48 48 49 49 48 46 44 42 41 40 41 42 45 48 50 51 51
101 101 100 101 100 101 104 106 103 99 97 97 103 108 109 111 111 107 102 102 103 103 104 104 103 102 101 100 101 101 101 101 101 101 101 101 100 100 100 101 103 104 99 90 75 58 44 36 32 32 33 36 39 45 51 53 50 47 47 50 50 49 46 43 42 42 45 50 57 65 69 69 69 69
101 101 100 100 100 102 105 105 101 97 98 99 103 107 109 109 108 105 103 103 103 103 104 106 107 107 106 105 104 103 102 100 100 100 101 100 100 101 103 104 100 90 76 60 48 38 33 31 33 35 37 42 49 52 52 51 49 47 48 51 52 51 49 51 56 63 67 72 80 87 90 91 92 94
101 102 101 99 100 102 105 106 103 100 100 99 100 102 103 103 102 103 104 104 103 102 102 103 103 102 102 104 106 105 103 101 102 103 102 103 104 103 96 87 74 60 47 38 33 32 34 35 37 39 45 52 56 54 51 52 52 51 51 57 65 72 76 79 83 87 88 89 94 98 98 99 101 101
100 101 101 100 100 101 104 106 105 103 101 99 99 100 102 103 104 104 104 104 104 104 103 102 100 98 95 93 93 92 87 84 85 87 87 87 85 78 67 54 45 37 33 32 33 34 35 37 40 46 53 57 59 59 62 65 65 65 71 82 91 97 98 98 98 99 99 100 101 101 100 100 101 100
Wind_Speed
103 104 105 106 106 107 108 108 109 110 110 111 111 112 112 114 114 113 112 112 111 111 111 109 107 105 105 106 107 107 107 107 108 108 108 108 108 108 108 108 107 107 106 105 104 103 102 102 102 102 101 99 98 98 97 95 93 90 88 87 88 89 89 89 89 90 90 89 87 85 84 86 87 87
100 101 102 103 104 105 107 107 109 110 111 112 113 114 115 116 116 117 117 115 112 112 113 113 112 110 108 108 108 109 109 109 110 111 110 110 109 109 109 109 108 108 108 108 107 106 105 104 104 104 103 101 100 100 99 98 96 94 92 90 90 90 91 91 91 91 91 90 89 87 86 86 86 86
94 95 96 98 99 101 102 104 105 106 108 110 111 113 114 116 117 119 121 120 116 115 116 116 115 114 113 112 111 111 111 111 112 113 113 112 112 112 112 111 110 109 109 109 108 108 107 106 106 106 105 104 103 102 101 100 99 98 96 95 93 92 92 92 93 93 92 91 90 89 87 86 86 87
88 89 90 91 93 94 96 97 99 100 102 104 106 108 110 112 115 117 120 122 120 119 120 120 118 118 118 118 116 114 114 114 115 115 115 115 115 115 114 113 113 112 111 110 110 109 109 108 108 108 108 107 106 105 103 102 101 100 100 98 97 95 94 94 94 94 94 93 92 91 89 87 86 86
84 85 86 87 88 89 91 92 93 94 96 97 99 102 104 106 108 111 115 119 120 120 121 121 121 122 123 122 122 120 118 117 117 118 118 118 117 117 117 116 116 115 114 113 112 111 111 110 109 108 108 108 108 107 106 104 103 103 102 102 100 99 98 97 96 96 95 95 94 93 91 89 88 87
83 84 84 85 87 88 89 90 91 92 93 94 95 97 98 100 101 104 107 111 115 116 116 117 119 122 124 124 125 125 124 122 121 121 120 120 120 120 120 119 118 118 117 116 116 115 114 113 112 110 109 109 108 108 108 107 106 105 105 104 103 102 100 99 98 97 97 96 96 95 93 91 90 89
83 84 85 86 87 89 89 90 91 93 94 95 96 96 98 99 99 101 104 106 109 110 110 111 113 116 120 121 122 124 125 125 125 125 124 123 123 123 123 122 122 121 120 120 119 118 117 116 115 114 112 111 110 109 109 108 108 107 106 105 105 104 102 101 100 98 98 97 96 96 95 93 92 91
83 84 85 86 87 89 90 91 92 94 96 97 98 99 100 102 102 103 105 107 108 108 107 106 107 110 113 115 116 118 121 123 124 125 126 125 124 124 125 125 125 124 124 123 123 122 121 120 118 117 115 114 112 111 110 110 109 109 107 106 105 105 104 102 101 100 99 98 97 96 96 95 93 92
82 83 84 85 87 89 90 91 93 95 96 98 99 100 102 103 105 105 107 108 109 110 108 106 105 106 109 111 111 112 115 117 118 120 123 123 123 123 123 124 125 126 127 127 126 125 125 124 122 121 119 118 116 114 112 111 111 110 109 107 106 105 105 104 102 102 101 100 98 97 96 96 95 94
79 80 82 83 85 87 88 89 91 93 95 97 98 99 101 103 104 105 106 108 109 110 110 108 106 105 107 110 111 109 111 114 114 115 116 118 120 120 121 121 122 124 126 127 128 128 127 127 126 125 123 122 120 118 116 115 113 113 111 110 108 107 106 106 105 104 103 102 101 99 98 97 96 95
74 75 76 77 79 81 82 84 86 87 89 92 93 95 97 99 101 102 103 105 107 108 108 108 107 106 107 110 111 110 111 114 114 113 113 115 116 117 119 119 119 120 121 123 125 126 128 128 128 128 128 126 124 123 121 118 116 115 114 113 110 108 108 108 108 107 105 104 103 101 100 99 97 96
67 68 69 70 72 73 75 76 78 79 81 84 85 86 88 90 92 94 96 98 100 102 103 104 104 105 106 108 110 110 111 113 113 114 115 115 114 115 116 118 118 118 117 118 119 121 123 125 126 128 129 129 128 126 125 123 120 118 117 116 114 111 110 110 110 110 108 106 105 104 103 101 100 99
59 59 60 61 62 64 65 66 68 69 71 73 74 74 76 78 80 82 84 87 89 91 93 94 96 98 100 102 105 106 107 109 111 113 115 116 115 115 116 117 116 116 117 117 117 117 118 120 121 123 125 127 128 128 127 126 124 121 120 119 117 114 112 112 112 112 111 109 108 107 106 105 103 102
49 50 51 52 53 55 56 57 58 59 61 62 63 63 64 66 68 71 72 73 75 77 79 80 83 86 88 90 93 96 98 100 104 106 109 111 113 115 116 115 114 115 117 118 117 117 117 118 119 120 120 122 124 126 127 127 126 125 123 121 120 118 115 113 113 114 113 112 111 110 109 108 107 105
43 44 46 47 49 50 51 52 52 53 54 55 56 56 56 57 59 60 60 60 62 64 65 66 68 71 72 73 77 81 84 87 90 94 98 102 105 109 111 111 111 112 115 118 119 118 117 118 118 118 118 118 119 121 123 125 126 125 124 123 122 121 119 116 115 115 115 115 114 113 112 111 110 108
41 43 44 45 46 46 47 48 49 50 51 52 53 53 53 53 53 53 53 53 53 55 56 56 57 58 58 58 61 66 70 72 75 79 84 89 92 96 100 102 103 104 108 114 117 117 116 117 118 118 117 117 117 117 118 119 120 121 122 122 122 122 121 119 116 116 117 117 117 116 115 114 113 112
41 42 42 42 42 43 44 45 46 48 49 50 51 51 52 52 53 53 53 52 51 52 52 52 52 52 54 53 53 58 63 64 63 65 69 73 77 81 86 90 93 95 98 104 109 111 111 112 115 116 115 115 115 115 115 115 115 115 116 116 118 120 122 121 118 116 117 118 119 119 118 118 116 115
41 41 41 41 41 42 43 43 44 45 47 48 49 49 50 51 52 53 53 53 52 52 51 51 50 51 54 53 53 58 62 63 60 59 61 63 66 69 73 77 80 83 86 91 97 101 101 103 108 110 111 112 113 114 114 114 114 113 112 111 112 115 118 119 118 116 116 118 120 120 120 120 119 118
40 41 42 42 41 42 42 43 44 44 45 46 47 47 49 50 51 51 51 52 52 51 51 50 49 50 52 53 54 58 62 62 60 59 60 61 62 64 64 65 67 70 73 78 85 89 90 93 98 102 103 106 109 111 113 113 113 113 112 110 109 110 111 113 114 114 114 116 119 121 121 121 121 120
39 41 42 42 41 41 42 43 44 44 45 45 46 46 47 48 49 49 50 51 51 51 51 51 51 50 51 53 55 57 60 61 60 61 61 61 62 63 60 58 58 60 63 67 71 74 77 81 88 92 95 98 102 105 108 110 111 112 112 111 110 109 109 109 110 111 112 113 116 119 121 122 122 122
38 39 40 41 40 40 41 42 43 44 45 45 45 46 46 46 47 47 48 51 51 52 53 53 54 54 54 55 56 58 59 60 60 63 63 61 62 63 60 57 56 57 58 59 60 61 63 67 74 79 83 88 92 96 100 103 106 108 110 110 110 110 109 108 108 109 109 109 111 115 118 120 122 122
37 39 39 40 39 39 40 41 43 45 46 46 46 46 45 45 45 47 49 51 52 53 54 54 54 54 55 56 57 57 58 58 60 63 63 61 63 64 62 60 59 58 57 57 60 60 57 59 65 67 69 74 80 84 88 92 97 101 104 107 109 109 110 110 110 109 107 107 108 111 114 117 119 120
36 38 39 39 39 39 39 41 42 44 45 46 46 46 46 46 47 48 49 49 49 49 50 51 51 51 51 51 52 53 53 54 56 59 60 60 62 63 63 62 61 60 57 58 64 65 61 62 65 63 63 65 68 71 75 81 86 91 96 101 104 106 108 111 112 110 107 107 108 109 110 112 114 116
34 36 37 37 38 39 39 40 42 43 45 46 46 46 47 46 46 45 44 44 44 45 46 47 49 49 49 49 50 50 51 52 53 55 56 57 59 60 60 58 58 58 56 55 62 67 66 66 66 64 63 62 61 62 66 70 76 83 88 93 98 101 105 108 111 110 109 109 109 108 107 107 108 109
32 34 35 36 37 38 39 40 41 42 44 45 46 46 46 45 43 42 41 41 41 42 43 44 46 47 48 49 50 51 51 51 51 52 53 55 56 57 55 53 53 54 51 50 57 65 67 66 65 63 62 62 60 60 60 62 67 74 80 87 91 95 100 104 107 109 110 110 109 107 105 103 102 102
31 33 34 34 35 36 37 39 40 42 43 44 44 43 42 40 40 39 38 39 39 39 40 41 42 43 44 46 47 49 50 50 50 51 52 52 53 53 52 50 49 48 46 47 56 64 66 65 63 60 60 61 61 60 59 59 61 66 73 80 85 90 95 99 103 106 108 109 107 105 102 99 98 97
32 33 32 33 34 35 36 37 39 40 40 40 38 37 36 36 36 36 37 37 36 36 37 38 38 39 40 41 42 44 46 47 48 49 49 49 49 48 47 46 45 43 42 46 55 63 65 63 59 55 57 59 60 59 57 57 59 63 68 74 80 86 90 94 98 101 104 105 104 102 100 99 98 96
31 31 31 31 32 34 35 37 38 38 37 35 33 32 33 34 35 35 35 34 34 34 34 34 34 34 35 36 37 38 40 42 43 44 44 44 43 43 43 43 42 40 40 46 55 61 62 57 52 51 54 57 57 56 55 55 57 61 66 71 77 81 85 87 91 94 96 98 98 98 98 98 97 96
32 31 30 31 32 33 35 36 36 36 34 32 30 31 32 33 33 32 31 31 31 30 31 31 31 31 31 33 34 35 36 37 38 39 40 40 40 40 40 40 39 38 39 45 54 58 55 49 45 47 51 53 53 52 51 51 52 56 61 66 70 73 76 78 80 82 85 88 90 93 94 94 95 94
34 32 31 31 32 33 35 35 34 33 32 30 29 30 31 31 30 28 28 28 27 26 26 27 27 26 28 29 30 31 32 32 33 35 36 36 36 36 36 37 36 36 39 46 52 52 46 40 40 43 46 48 47 46 46 46 46 48 51 55 59 62 64 66 68 71 73 77 81 85 88 89 90 91
34 32 31 30 32 33 34 33 32 31 29 28 28 29 29 28 26 26 26 25 23 22 22 22 22 21 21 23 24 26 27 27 28 29 30 30 30 31 32 33 32 34 39 44 45 41 36 34 36 38 40 42 42 42 41 40 39 39 41 45 50 53 55 56 58 61 64 67 72 76 80 83 85 87
31 30 29 29 30 32 32 31 30 28 27 27 27 27 26 25 24 24 24 22 20 18 17 17 17 17 16 17 20 22 22 22 23 24 25 25 25 27 28 28 29 32 36 38 36 32 30 32 33 33 35 38 38 37 37 36 35 36 39 43 47 48 49 50 52 54 56 61 65 68 72 75 78 80
29 28 28 29 29 30 29 28 27 26 25 25 25 23 22 23 23 22 21 18 16 15 15 15 15 15 15 16 18 18 18 18 19 20 21 20 20 21 22 23 26 28 30 30 28 28 29 31 31 31 34 36 36 36 36 35 36 39 41 43 44 45 46 47 48 50 52 56 59 61 64 67 69 71
26 27 28 28 28 28 27 26 25 24 24 24 23 21 20 20 20 20 19 16 14 14 14 14 13 13 13 15 17 17 16 17 18 17 16 15 14 15 17 19 21 23 24 25 26 28 29 30 30 32 34 35 36 37 37 38 40 42 42 42 42 42 43 45 46 48 50 52 54 56 58 60 61 63
25 26 26 27 27 26 25 24 24 23 22 22 22 20 19 18 18 18 17 15 13 13 13 13 13 12 11 12 14 15 15 16 15 13 11 11 11 12 14 16 19 20 21 23 26 27 28 29 30 32 33 35 35 36 36 38 40 41 40 39 40 41 42 43 44 45 47 48 50 52 53 53 54 54
25 26 26 26 25 25 24 23 22 22 21 21 21 20 18 17 17 17 17 15 13 13 13 13 13 12 10 9 10 12 13 13 12 10 10 11 12 13 14 17 20 21 22 24 25 26 27 29 31 32 33 35 35 35 36 38 39 39 39 39 40 41 42 42 43 44 45 45 46 47 47 46 46 46
25 26 26 25 25 24 23 22 21 20 19 19 20 20 19 18 17 17 16 15 13 12 13 13 13 13 12 10 9 10 10 10 10 10 11 13 15 15 16 18 20 21 22 24 25 26 28 29 30 32 33 34 35 36 38 39 40 40 40 41 41 42 42 43 43 43 43 43 43 42 42 42 42 42
24 25 26 25 24 23 22 21 20 19 18 17 18 19 19 19 18 16 15 14 14 12 12 13 13 13 12 11 9 9 9 9 9 10 12 14 16 18 19 20 20 21 22 23 24 25 26 27 28 30 32 34 35 38 40 41 41 41 42 42 42 42 43 43 43 43 43 43 43 42 42 42 43 43
21 22 23 23 23 21 20 19 18 17 16 16 16 17 18 18 18 16 15 14 14 13 12 12 13 13 12 11 10 10 10 10 10 11 12 14 17 19 21 22 23 23 23 23 23 23 23 25 27 30 33 35 38 41 43 43 43 43 43 43 43 43 43 43 44 44 44 44 44 44 44 43 43 44
21 21 20 21 21 20 18 17 16 16 15 14 14 14 15 16 16 15 14 13 12 12 12 12 12 12 11 10 9 9 10 11 11 12 13 14 16 19 22 23 24 24 23 23 23 24 25 27 30 33 37 39 42 43 44 44 43 43 43 43 43 43 43 43 43 43 43 43 43 42 41 40 40 41
21 20 20 19 19 18 16 15 14 14 13 13 12 11 12 12 12 12 11 10 10 10 10 10 10 9 9 8 9 10 11 12 13 14 15 15 17 20 22 23 23 23 23 23 25 28 31 34 36 38 41 42 44 44 43 43 43 42 42 42 42 41 41 41 41 41 41 40 39 38 38 38 39 39
20 19 19 19 18 17 15 13 12 12 11 10 10 9 9 9 9 9 9 8 8 8 8 7 7 7 7 7 8 10 12 13 14 15 17 17 18 20 22 23 23 24 25 27 30 33 36 37 39 41 42 43 43 43 42 42 42 42 41 41 41 41 41 40 40 39 38 37 36 35 35 35 36 35
18 17 17 18 17 15 14 12 11 10 9 8 8 7 7 7 6 6 6 5 5 5 6 6 6 5 5 6 7 9 11 12 13 15 17 18 19 20 22 23 24 26 29 32 34 35 37 38 39 40 41 41 41 41 41 41 41 41 40 40 40 40 39 38 37 37 36 36 35 34 34 33 33 32
16 16 16 17 15 14 12 11 9 8 7 6 5 4 4 3 3 3 4 4 5 5 6 6 6 6 6 6 7 8 10 12 13 15 17 18 19 20 22 24 26 29 31 33 34 35 37 38 39 40 39 40 40 41 41 40 40 40 40 39 39 38 37 36 35 35 34 34 33 32 32 31 31 30
14 14 15 15 14 12 11 9 7 6 4 3 2 2 3 3 4 5 6 6 7 8 8 8 8 8 8 8 8 9 10 11 13 15 17 18 20 22 24 27 29 30 32 34 35 37 39 39 39 40 40 41 41 41 41 40 41 41 40 39 38 36 35 35 34 33 33 32 32 31 31 30 29 29
Wind_Direction
264 264 264 264 263 263 263 262 262 262 261 261 261 260 260 259 258 256 255 255 255 255 255 254 253 253 252 251 251 250 250 250 250 251 251 251 251 251 251 250 250 249 248 247 247 246 247 248 248 249 249 249 249 249 248 247 246 245 245 247 248 248 248 247 247 246 245 245 244 242 241 242 243 243
265 265 264 264 264 263 263 263 262 262 262 261 261 261 260 260 259 258 256 254 254 254 255 254 254 253 253 252 252 251 251 250 250 250 250 250 250 250 250 250 250 250 250 249 248 247 246 246 247 247 247 248 248 248 248 248 247 246 245 245 246 247 248 247 247 247 246 245 244 243 241 241 241 242
266 265 265 265 264 264 264 263 263 262 262 261 261 261 260 260 260 259 258 256 254 254 254 254 254 254 253 253 252 252 251 251 250 250 250 249 250 249 249 249 249 249 250 250 249 248 247 246 246 246 246 246 247 247 248 248 248 247 246 245 245 245 246 247 247 247 246 246 245 243 242 241 241 241
266 266 265 265 265 264 264 264 263 263 263 262 262 261 261 260 260 260 259 257 255 254 255 254 253 253 253 253 253 252 252 252 251 250 250 249 249 249 249 249 249 249 248 249 249 249 248 248 247 246 246 246 246 246 247 247 248 248 247 247 246 245 245 245 246 246 246 246 245 244 243 242 241 240
267 266 265 265 264 264 264 263 263 263 263 262 262 262 261 261 260 260 259 259 256 254 255 255 254 253 253 253 253 252 252 252 252 251 251 250 249 249 249 249 249 249 248 248 248 248 248 248 247 247 246 246 246 246 246 246 246 247 247 247 246 245 245 244 245 245 246 246 245 245 244 243 241 240
268 267 266 266 265 264 264 263 263 262 262 262 262 261 261 261 261 261 260 260 258 256 255 255 255 254 254 253 253 253 252 252 252 252 251 251 250 249 249 248 248 248 248 248 248 247 247 247 247 247 246 246 246 246 246 245 245 245 246 247 246 246 245 245 244 244 245 245 246 245 245 244 243 241
269 268 267 267 266 265 265 264 263 263 262 262 261 261 261 261 261 261 261 261 260 258 256 255 255 255 254 254 253 253 253 252 251 251 251 251 251 250 250 249 248 248 248 248 248 248 247 247 247 246 246 246 246 246 246 245 245 245 245 246 246 246 246 245 245 244 244 245 245 246 246 245 244 243
270 269 268 267 267 266 265 264 264 263 263 262 262 261 261 261 260 260 261 261 261 260 258 256 256 256 256 255 254 254 254 253 252 251 251 251 251 251 251 250 249 248 247 247 247 247 247 247 246 246 246 245 245 245 245 245 245 245 245 245 246 246 246 245 245 244 244 244 244 245 245 245 245 244
270 270 269 268 267 266 265 265 264 263 263 262 262 261 261 260 260 260 260 261 261 261 260 258 257 257 257 257 256 255 255 254 253 252 252 251 250 250 250 250 250 249 248 247 247 247 247 247 246 246 246 245 245 244 244 244 244 244 244 244 244 245 245 245 245 244 244 244 243 243 243 244 244 244
272 272 270 269 268 267 266 266 265 264 264 263 262 262 262 261 261 260 260 261 261 261 261 260 258 257 257 258 257 256 256 256 255 253 253 252 251 250 250 249 249 249 249 248 248 247 246 246 246 246 246 245 245 244 243 243 243 244 244 243 243 243 244 244 244 244 244 244 243 243 242 242 243 243
274 273 272 271 270 269 268 267 267 266 265 264 264 263 263 262 262 261 261 261 261 261 260 260 259 258 257 257 257 257 256 256 256 255 254 253 252 252 251 250 249 249 249 248 248 248 247 247 246 246 245 245 245 244 244 243 243 243 243 243 242 242 242 243 244 244 244 244 244 243 243 242 242 242
275 274 273 272 271 270 269 268 268 267 266 265 265 265 264 263 263 262 262 261 261 261 260 260 259 258 257 256 257 256 255 255 256 255 254 253 252 252 252 251 250 249 249 248 248 248 248 247 246 246 245 244 244 244 244 243 242 242 242 243 242 241 241 242 243 243 244 244 243 243 243 242 242 241
276 274 272 271 270 269 269 268 268 267 267 267 266 266 265 265 264 263 263 262 262 261 261 260 260 258 257 256 256 256 256 255 255 254 254 253 252 252 251 251 251 250 250 249 248 247 247 247 246 246 246 245 244 244 243 243 242 242 242 242 242 241 240 241 241 242 243 243 243 243 243 243 242 241
275 273 272 271 270 269 269 269 268 268 268 268 267 266 265 265 265 265 265 265 265 264 263 262 261 260 258 257 257 257 257 256 255 254 254 254 253 252 251 251 251 251 251 250 248 247 247 247 246 245 245 245 244 244 243 242 242 242 241 241 242 241 240 240 240 241 241 242 242 242 242 242 242 241
273 271 271 270 270 270 271 271 271 270 270 269 269 268 268 267 267 267 267 267 267 266 265 264 263 262 260 259 258 258 257 256 255 255 254 254 253 252 252 251 250 250 251 250 249 247 247 246 246 245 245 244 244 244 244 243 242 241 241 241 241 241 240 239 239 240 240 241 241 241 241 241 241 241
274 273 272 272 272 272 272 271 271 270 269 269 269 270 270 270 270 270 269 267 266 265 265 264 264 264 263 260 259 259 258 256 255 254 254 254 253 252 252 251 249 249 250 250 249 247 247 247 246 245 244 244 244 243 243 243 243 242 241 240 240 240 240 239 238 238 239 239 239 240 240 240 240 241
279 278 276 275 274 274 273 271 270 269 269 269 270 270 270 271 271 270 270 269 267 266 265 264 263 263 262 260 258 258 258 257 255 254 253 253 253 252 251 250 249 248 249 249 249 247 247 247 247 246 244 244 243 243 242 242 242 242 241 241 240 239 239 239 237 237 237 238 239 239 239 239 239 240
284 283 282 280 279 278 276 274 272 270 270 270 270 271 271 271 271 271 271 270 269 268 266 264 263 262 262 260 258 258 258 258 256 255 254 253 253 251 250 249 248 247 248 249 248 247 246 246 247 246 244 244 243 242 241 241 241 240 240 240 239 239 239 238 237 236 236 237 238 238 238 239 239 239
287 286 285 283 281 280 279 277 275 274 273 273 273 273 273 272 272 271 271 270 270 269 267 266 263 261 260 260 258 258 258 258 257 255 254 253 252 251 250 248 247 247 247 248 248 246 245 245 246 245 244 243 242 241 240 240 239 239 239 238 238 238 238 238 237 236 235 235 236 237 237 237 238 238
288 287 284 283 282 281 279 278 278 277 277 276 275 275 274 274 273 273 273 272 271 270 269 268 265 263 260 259 258 257 258 258 258 256 254 253 252 252 251 249 248 247 247 249 249 247 244 245 246 245 243 242 242 241 240 239 238 238 237 237 237 236 237 237 236 236 235 234 234 235 236 236 237 237
288 286 283 282 281 281 280 280 280 280 280 279 278 277 276 275 274 274 274 273 271 270 268 267 265 264 262 259 258 257 256 256 256 255 255 254 254 254 252 250 249 248 248 250 251 249 245 244 246 245 244 243 242 240 240 239 238 237 236 236 236 235 235 235 235 234 234 233 233 234 235 235 236 236
289 286 284 283 282 282 282 282 282 283 282 282 281 279 278 277 276 275 274 273 272 270 269 268 266 265 263 262 260 259 258 257 256 256 254 253 253 254 253 252 250 249 249 250 252 250 245 244 245 245 244 243 242 241 240 238 237 236 235 235 234 234 234 234 234 233 233 232 232 233 233 234 235 235
289 287 286 285 284 284 284 284 284 284 284 283 282 281 280 278 277 275 274 273 273 272 271 269 268 266 264 263 262 262 260 259 258 258 256 254 252 252 251 250 250 250 249 249 250 249 245 243 244 243 243 242 241 241 239 237 236 234 233 233 233 232 233 233 233 232 231 231 231 232 232 233 234 234
288 288 287 287 286 286 286 286 286 285 284 284 283 283 282 280 278 277 276 275 273 272 271 270 269 268 265 263 261 259 258 257 257 257 257 256 254 252 250 249 248 248 246 245 247 248 246 244 243 242 241 240 240 240 239 237 235 233 231 231 230 230 230 231 232 231 231 230 231 231 231 232 233 234
291 291 290 290 289 288 288 288 287 287 287 286 286 285 284 283 282 280 278 276 275 273 272 271 270 269 268 266 264 261 260 258 257 257 257 256 255 254 252 250 247 245 242 240 242 246 246 245 242 240 239 238 238 239 238 236 234 232 229 228 228 228 229 229 230 230 230 230 230 230 231 232 232 233
295 294 293 291 289 289 289 289 289 288 288 287 286 284 283 282 281 280 279 277 275 274 272 270 269 268 266 265 265 264 262 261 259 258 258 257 257 256 254 251 248 244 239 236 239 243 245 244 242 239 236 236 236 236 237 235 233 231 228 226 225 226 227 228 228 229 229 229 229 230 230 231 231 232
298 296 294 292 291 290 290 289 288 287 286 285 283 283 283 284 285 284 283 281 278 276 274 272 269 267 265 264 263 263 263 262 261 260 259 259 258 257 255 252 249 244 237 234 237 241 244 244 242 239 236 234 233 234 236 236 234 230 227 225 224 224 226 227 227 228 228 228 228 228 229 229 230 231
298 297 295 293 291 290 290 289 289 289 289 288 288 290 291 291 290 289 288 286 283 280 277 273 270 268 266 265 263 262 262 262 262 262 261 261 259 257 254 251 248 243 236 233 236 239 242 242 241 239 235 232 231 232 234 236 236 233 228 225 224 224 225 226 227 227 228 227 227 227 227 228 229 229
301 300 297 295 294 294 294 294 295 295 294 294 295 296 294 292 291 290 289 287 284 280 277 275 273 270 268 266 263 262 261 260 260 260 259 259 257 255 253 249 245 240 235 233 235 238 239 239 238 236 234 231 230 231 234 236 237 236 232 228 225 224 224 225 226 226 227 227 226 226 226 227 228 229
304 302 299 299 299 299 299 299 299 298 297 297 297 295 292 291 291 290 287 285 283 281 279 277 275 272 270 268 266 264 263 261 259 258 256 256 256 254 252 248 244 238 233 231 233 236 237 235 233 232 231 230 230 232 234 234 233 233 233 229 225 223 224 224 224 224 224 224 224 224 225 225 226 228
303 301 301 302 301 301 301 300 299 298 297 297 295 292 290 291 290 288 285 283 280 279 279 279 278 274 272 271 270 267 264 261 258 257 256 255 254 252 249 245 240 234 230 230 232 234 232 227 225 226 228 229 230 230 229 228 225 224 225 222 220 219 220 220 221 220 220 220 221 222 222 223 225 226
301 300 301 303 302 302 301 300 299 297 296 295 293 290 289 289 288 286 285 284 283 282 284 287 286 283 282 280 275 267 261 255 253 253 253 251 250 248 244 240 234 230 228 229 229 226 220 215 216 220 224 227 226 223 219 216 212 210 211 211 212 211 212 213 214 214 214 215 216 218 219 221 223 224
302 302 304 305 304 303 301 300 298 295 294 292 289 286 285 285 285 287 287 288 292 296 299 302 302 301 297 286 271 259 250 245 244 246 247 246 245 243 240 234 229 226 224 222 216 210 206 206 210 215 219 220 217 211 206 202 199 199 201 203 204 203 204 206 207 208 209 210 211 213 215 217 219 221
304 305 306 306 305 303 302 300 297 294 292 290 287 282 278 279 282 285 286 289 294 298 302 305 308 310 302 281 261 247 238 235 238 240 239 238 238 238 234 227 220 216 212 205 199 197 199 203 207 212 213 211 206 201 197 194 193 194 196 196 195 196 198 200 201 203 204 206 207 209 211 213 215 218
307 307 307 307 306 305 303 300 297 294 292 291 287 281 275 273 276 280 283 287 291 292 296 301 306 311 306 284 262 247 237 235 236 235 229 224 222 219 215 208 200 194 193 192 193 195 198 202 205 207 206 202 198 193 190 189 189 190 189 187 187 190 193 195 197 199 201 202 204 206 207 209 211 214
311 310 310 309 308 306 305 301 297 294 292 292 289 282 272 267 269 273 276 279 282 283 285 290 297 303 303 290 269 255 246 239 232 225 218 210 201 193 192 192 186 182 183 188 193 196 199 201 201 200 197 194 189 185 183 183 184 182 180 180 182 185 188 190 192 195 198 200 202 203 203 205 207 208
314 313 313 312 311 309 306 302 297 294 293 293 291 284 272 262 260 263 266 267 269 271 274 277 281 287 290 285 270 258 251 240 226 218 213 204 189 179 179 184 185 184 187 192 195 197 198 198 196 193 189 184 179 176 176 178 178 175 174 176 179 181 183 185 188 190 193 196 198 198 199 200 201 203
316 316 315 314 313 310 305 301 297 295 294 295 294 287 276 263 255 254 254 256 257 259 261 264 266 270 274 273 261 249 242 233 223 217 212 201 188 179 176 178 181 185 190 194 196 197 196 192 187 182 177 173 171 172 174 174 173 172 173 175 177 178 180 182 185 187 190 192 194 194 196 197 199 201
319 318 315 314 312 310 306 302 299 297 296 296 294 290 280 268 258 251 247 247 248 250 251 254 257 258 259 258 250 238 230 223 214 208 205 200 191 184 179 178 181 184 188 190 192 190 186 181 176 172 169 168 170 172 173 172 172 172 173 175 176 176 178 181 183 186 188 190 192 194 195 197 199 202
324 322 318 315 314 312 308 304 301 300 298 296 294 289 283 273 262 253 246 243 243 244 245 248 250 251 249 245 236 226 219 212 202 196 195 194 191 187 184 183 184 185 186 185 183 177 173 170 169 168 167 169 170 171 170 169 170 171 172 174 174 176 178 180 183 185 187 189 192 194 195 196 198 202
327 325 323 320 318 315 312 308 305 302 299 296 292 287 280 271 261 251 244 239 238 239 240 241 242 241 238 231 221 213 208 203 195 189 184 185 188 189 187 186 185 183 180 177 172 169 168 168 167 166 167 167 167 166 166 167 169 171 172 173 173 175 177 179 182 184 186 188 189 191 192 194 197 199
328 327 326 324 322 320 317 314 309 303 298 293 288 280 270 260 249 241 236 233 231 229 227 225 225 224 221 216 209 205 203 198 192 185 180 180 184 188 188 185 181 177 173 170 169 168 167 165 164 164 165 164 163 164 165 167 169 170 171 170 171 173 176 178 180 181 182 183 184 186 188 191 194 196
329 328 328 327 326 324 323 319 313 305 295 287 281 272 260 247 236 228 221 215 208 202 200 199 196 194 193 192 193 197 198 194 188 184 180 177 180 184 184 179 174 170 169 168 167 164 162 161 161 161 161 160 161 163 165 167 168 168 168 169 170 172 173 174 176 177 178 179 180 182 184 187 189 191
330 331 332 332 331 331 329 326 319 310 297 284 271 256 240 223 203 185 174 168 167 166 165 162 156 152 155 163 171 180 185 183 181 180 177 173 174 175 173 169 167 167 166 164 160 157 157 158 158 157 157 159 162 164 164 164 164 165 166 166 167 168 169 170 172 173 175 176 177 178 181 184 186 188
333 335 336 337 337 337 335 332 327 318 302 275 238 200 169 146 134 132 133 134 135 133 127 123 123 126 132 141 148 156 163 166 166 166 164 163 163 164 163 162 162 161 158 155 153 154 155 155 155 155 157 160 162 162 161 161 162 163 163 163 163 164 166 168 170 172 173 174 174 176 179 181 183 185